| time (UTC) | temp F | wind direction | speed MPH | gust MPH | rain 1hr in | rain 24hr in | rain mn in | humidity % | barometer mb |
| 20260903082307 | 63 | 298 | 0.0 | 0.0 | 0.00 | 0.01 | 0.01 | 91 | 1014.8 |
| 20260903081749 | 63 | 298 | 0.0 | 0.0 | 0.00 | 0.01 | 0.01 | 91 | 1014.8 |
| 20260903081254 | 63 | 298 | 0.0 | 0.0 | 0.00 | 0.01 | 0.01 | 91 | 1014.8 |
| 20260903080750 | 63 | 298 | 0.0 | 0.0 | 0.00 | 0.01 | 0.01 | 90 | 1014.8 |
| 20260903080307 | 63 | 298 | 0.0 | 0.0 | 0.01 | 0.01 | 0.01 | 90 | 1014.8 |
| 20260903075805 | 63 | 298 | 0.0 | 0.0 | 0.01 | 0.01 | 0.01 | 90 | 1014.8 |
| 20260903075306 | 63 | 298 | 0.0 | 0.0 | 0.01 | 0.01 | 0.01 | 90 | 1014.9 |
| 20260903074749 | 63 | 298 | 0.0 | 0.0 | 0.01 | 0.01 | 0.01 | 90 | 1014.9 |
| 20260903074301 | 63 | 298 | 0.0 | 0.0 | 0.01 | 0.01 | 0.01 | 90 | 1014.9 |
| 20260903073749 | 63 | 298 | 0.0 | 2.0 | 0.01 | 0.01 | 0.01 | 90 | 1015.0 |
| 20260903073306 | 63 | 298 | 0.0 | 2.0 | 0.01 | 0.01 | 0.01 | 90 | 1015.0 |
| 20260903072826 | 63 | 298 | 0.0 | 1.0 | 0.01 | 0.01 | 0.01 | 90 | 1015.0 |
| 20260903072307 | 63 | 298 | 0.0 | 2.0 | 0.01 | 0.01 | 0.01 | 90 | 1015.3 |
| 20260903071747 | 63 | 298 | 0.0 | 2.0 | 0.01 | 0.01 | 0.01 | 90 | 1015.3 |
| 20260903071251 | 63 | 298 | 0.0 | 1.0 | 0.01 | 0.01 | 0.01 | 90 | 1015.3 |
| 20260903070747 | 63 | 298 | 0.0 | 0.0 | 0.01 | 0.01 | 0.01 | 89 | 1015.3 |
| 20260903070305 | 63 | 298 | 0.0 | 0.0 | 0.00 | 0.00 | 0.00 | 89 | 1015.3 |
| 20260903065802 | 63 | 298 | 0.0 | 0.0 | 0.00 | 0.00 | 0.00 | 89 | 1015.3 |
| 20260903065305 | 64 | 298 | 0.0 | 1.0 | 0.00 | 0.00 | 0.00 | 88 | 1014.1 |
| 20260903064745 | 64 | 313 | 0.0 | 3.0 | 0.00 | 0.00 | 0.00 | 88 | 1014.1 |
| 20260903064327 | 64 | 313 | 1.0 | 5.0 | 0.00 | 0.00 | 0.00 | 88 | 1014.1 |
| 20260903063749 | 64 | 135 | 3.0 | 4.0 | 0.00 | 0.00 | 0.00 | 88 | 1015.3 |
| 20260903063250 | 64 | 43 | 0.0 | 0.0 | 0.00 | 0.00 | 0.00 | 87 | 1015.3 |
| 20260903062805 | 64 | 43 | 0.0 | 0.0 | 0.00 | 0.00 | 0.00 | 87 | 1015.3 |
| 20260903062306 | 64 | 43 | 0.0 | 0.0 | 0.00 | 0.00 | 0.00 | 87 | 1015.2 |
| 20260903061804 | 64 | 42 | 0.0 | 0.0 | 0.00 | 0.00 | 0.00 | 86 | 1015.2 |
| 20260903061307 | 64 | 43 | 0.0 | 0.0 | 0.00 | 0.00 | 0.00 | 86 | 1015.2 |
| 20260903060750 | 65 | 43 | 0.0 | 0.0 | 0.00 | 0.00 | 0.00 | 85 | 1015.9 |
| 20260903060301 | 65 | 43 | 0.0 | 0.0 | 0.00 | 0.00 | 0.00 | 85 | 1015.9 |
| 20260903055759 | 65 | 42 | 0.0 | 0.0 | 0.00 | 0.00 | 0.00 | 85 | 1015.9 |
| 20260903055256 | 65 | 43 | 0.0 | 0.0 | 0.00 | 0.00 | 0.00 | 84 | 1016.2 |
| 20260903054819 | 65 | 319 | 0.0 | 0.0 | 0.00 | 0.00 | 0.00 | 84 | 1016.2 |
| 20260903054258 | 65 | 31 | 0.0 | 0.0 | 0.00 | 0.00 | 0.00 | 83 | 1016.2 |
| 20260903053754 | 65 | 31 | 0.0 | 0.0 | 0.00 | 0.00 | 0.00 | 83 | 1016.6 |
| 20260903053253 | 65 | 31 | 0.0 | 0.0 | 0.00 | 0.00 | 0.00 | 83 | 1016.6 |
| 20260903052758 | 65 | 28 | 0.0 | 0.0 | 0.00 | 0.00 | 0.00 | 82 | 1016.6 |
| 20260903052259 | 65 | 28 | 0.0 | 0.0 | 0.00 | 0.00 | 0.00 | 82 | 1016.7 |
| 20260903051758 | 65 | 28 | 0.0 | 0.0 | 0.00 | 0.00 | 0.00 | 81 | 1016.7 |
| 20260903051248 | 65 | 9 | 0.0 | 0.0 | 0.00 | 0.00 | 0.00 | 81 | 1016.7 |
| 20260903050753 | 65 | 14 | 0.0 | 0.0 | 0.00 | 0.00 | 0.00 | 81 | 1016.7 |
| 20260903050245 | 65 | 14 | 0.0 | 0.0 | 0.00 | 0.00 | 0.00 | 81 | 1016.7 |
| 20260903045806 | 65 | 14 | 0.0 | 0.0 | 0.00 | 0.00 | 0.00 | 80 | 1016.7 |
| 20260903045249 | 65 | 14 | 0.0 | 0.0 | 0.00 | 0.00 | 0.00 | 80 | 1016.7 |
| 20260903044752 | 66 | 14 | 0.0 | 0.0 | 0.00 | 0.00 | 0.00 | 79 | 1016.7 |
| 20260903044255 | 66 | 14 | 0.0 | 0.0 | 0.00 | 0.00 | 0.00 | 80 | 1016.7 |
| 20260903043825 | 66 | 14 | 0.0 | 1.0 | 0.00 | 0.00 | 0.00 | 79 | 1016.7 |
| 20260903043306 | 66 | 14 | 0.0 | 2.0 | 0.00 | 0.00 | 0.00 | 79 | 1016.7 |
| 20260903042748 | 66 | 14 | 0.0 | 3.0 | 0.00 | 0.00 | 0.00 | 79 | 1016.7 |
| 20260903042253 | 66 | 313 | 0.0 | 1.0 | 0.00 | 0.00 | 0.00 | 79 | 1016.9 |
| 20260903041756 | 66 | 313 | 0.0 | 1.0 | 0.00 | 0.00 | 0.00 | 79 | 1016.9 |
| 20260903041305 | 66 | 313 | 0.0 | 3.0 | 0.00 | 0.00 | 0.00 | 79 | 1016.9 |
| 20260903040825 | 66 | 308 | 0.0 | 3.0 | 0.00 | 0.00 | 0.00 | 78 | 1017.2 |
| 20260903040252 | 66 | 308 | 0.0 | 2.0 | 0.00 | 0.00 | 0.00 | 79 | 1017.2 |
| 20260903035747 | 66 | 307 | 0.0 | 0.0 | 0.00 | 0.00 | 0.00 | 78 | 1017.2 |
| 20260903035306 | 66 | 307 | 0.0 | 0.0 | 0.00 | 0.00 | 0.00 | 79 | 1016.9 |
| 20260903034749 | 66 | 307 | 0.0 | 0.0 | 0.00 | 0.00 | 0.00 | 79 | 1016.9 |
| 20260903034251 | 66 | 308 | 0.0 | 0.0 | 0.00 | 0.00 | 0.00 | 79 | 1016.9 |
| 20260903033749 | 66 | 308 | 0.0 | 0.0 | 0.00 | 0.00 | 0.00 | 80 | 1016.9 |
| 20260903033324 | 66 | 308 | 0.0 | 2.0 | 0.00 | 0.00 | 0.00 | 80 | 1016.9 |
| 20260903032816 | 66 | 308 | 1.0 | 2.0 | 0.00 | 0.00 | 0.00 | 80 | 1016.9 |
| 20260903032253 | 66 | 308 | 0.0 | 1.0 | 0.00 | 0.00 | 0.00 | 81 | 1017.1 |
| 20260903031752 | 66 | 308 | 0.0 | 0.0 | 0.00 | 0.00 | 0.00 | 81 | 1017.1 |
| 20260903031251 | 66 | 308 | 0.0 | 0.0 | 0.00 | 0.00 | 0.00 | 81 | 1017.1 |
| 20260903030754 | 66 | 308 | 0.0 | 0.0 | 0.00 | 0.00 | 0.00 | 81 | 1017.2 |
| 20260903030249 | 66 | 308 | 0.0 | 0.0 | 0.00 | 0.00 | 0.00 | 81 | 1017.2 |
| 20260903025827 | 66 | 308 | 0.0 | 1.0 | 0.00 | 0.00 | 0.00 | 80 | 1017.2 |
| 20260903025327 | 66 | 308 | 0.0 | 1.0 | 0.00 | 0.00 | 0.00 | 80 | 1017.3 |
| 20260903024808 | 66 | 308 | 0.0 | 2.0 | 0.00 | 0.00 | 0.00 | 80 | 1017.3 |
| 20260903024256 | 66 | 308 | 1.0 | 2.0 | 0.00 | 0.00 | 0.00 | 80 | 1017.3 |
| 20260903023757 | 66 | 308 | 0.0 | 1.0 | 0.00 | 0.00 | 0.00 | 81 | 1017.7 |
| 20260903023255 | 66 | 308 | 0.0 | 1.0 | 0.00 | 0.00 | 0.00 | 81 | 1017.7 |
| 20260903022755 | 66 | 308 | 0.0 | 2.0 | 0.00 | 0.00 | 0.00 | 80 | 1017.7 |
| 20260903022257 | 67 | 307 | 0.0 | 2.0 | 0.00 | 0.00 | 0.00 | 81 | 1017.8 |
| 20260903021757 | 67 | 290 | 0.0 | 0.0 | 0.00 | 0.00 | 0.00 | 82 | 1017.8 |
| 20260903021253 | 67 | 290 | 0.0 | 1.0 | 0.00 | 0.00 | 0.00 | 82 | 1017.8 |
| 20260903020755 | 67 | 290 | 0.0 | 0.0 | 0.00 | 0.00 | 0.00 | 81 | 1018.3 |
| 20260903020306 | 67 | 290 | 0.0 | 0.0 | 0.00 | 0.00 | 0.00 | 81 | 1018.3 |
| 20260903015748 | 67 | 290 | 0.0 | 0.0 | 0.00 | 0.00 | 0.00 | 81 | 1018.3 |
| 20260903015250 | 67 | 290 | 0.0 | 0.0 | 0.00 | 0.00 | 0.00 | 81 | 1018.2 |
| 20260903014751 | 67 | 290 | 0.0 | 0.0 | 0.00 | 0.00 | 0.00 | 80 | 1018.2 |
| 20260903014250 | 67 | 290 | 0.0 | 1.0 | 0.00 | 0.00 | 0.00 | 81 | 1018.2 |
| 20260903013807 | 67 | 290 | 0.0 | 0.0 | 0.00 | 0.00 | 0.00 | 81 | 1018.2 |
| 20260903013303 | 67 | 290 | 0.0 | 0.0 | 0.00 | 0.00 | 0.00 | 81 | 1018.2 |
| 20260903012759 | 67 | 290 | 0.0 | 2.0 | 0.00 | 0.00 | 0.00 | 80 | 1018.2 |
| 20260903012318 | 67 | 290 | 0.0 | 2.0 | 0.00 | 0.00 | 0.00 | 80 | 1018.1 |
| 20260903011758 | 67 | 309 | 0.0 | 1.0 | 0.00 | 0.00 | 0.00 | 81 | 1018.1 |
| 20260903011257 | 67 | 309 | 0.0 | 1.0 | 0.00 | 0.00 | 0.00 | 81 | 1018.1 |
| 20260903010811 | 67 | 309 | 0.0 | 1.0 | 0.00 | 0.00 | 0.00 | 82 | 1018.2 |
| 20260903010321 | 67 | 309 | 0.0 | 1.0 | 0.00 | 0.00 | 0.00 | 82 | 1018.2 |
| 20260903005800 | 67 | 309 | 0.0 | 3.0 | 0.00 | 0.00 | 0.00 | 83 | 1018.2 |
| 20260903005306 | 67 | 309 | 1.0 | 3.0 | 0.00 | 0.00 | 0.00 | 83 | 1017.3 |
| 20260903004828 | 67 | 24 | 0.0 | 3.0 | 0.00 | 0.00 | 0.00 | 84 | 1017.3 |
| 20260903004246 | 68 | 346 | 0.0 | 3.0 | 0.00 | 0.00 | 0.00 | 85 | 1017.3 |
| 20260903003750 | 68 | 225 | 0.0 | 1.0 | 0.00 | 0.00 | 0.00 | 86 | 1017.4 |
| 20260903003253 | 68 | 225 | 0.0 | 1.0 | 0.00 | 0.00 | 0.00 | 86 | 1017.4 |
| 20260903002754 | 68 | 225 | 0.0 | 0.0 | 0.00 | 0.00 | 0.00 | 87 | 1017.4 |
| 20260903002308 | 68 | 225 | 0.0 | 0.0 | 0.00 | 0.00 | 0.00 | 87 | 1017.7 |
| 20260903001750 | 68 | 225 | 0.0 | 0.0 | 0.00 | 0.00 | 0.00 | 87 | 1017.7 |
| 20260903001249 | 68 | 225 | 0.0 | 0.0 | 0.00 | 0.00 | 0.00 | 87 | 1017.7 |
| 20260903000748 | 69 | 225 | 0.0 | 0.0 | 0.00 | 0.00 | 0.00 | 87 | 1017.7 |
| 20260903000310 | 69 | 225 | 0.0 | 1.0 | 0.00 | 0.00 | 0.00 | 88 | 1017.7 |
| 20260902235748 | 69 | 225 | 0.0 | 1.0 | 0.00 | 0.00 | 0.00 | 88 | 1017.7 |
| 20260902235251 | 69 | 225 | 0.0 | 0.0 | 0.00 | 0.00 | 0.00 | 88 | 1017.8 |
| 20260902234808 | 69 | 225 | 0.0 | 0.0 | 0.00 | 0.00 | 0.00 | 88 | 1017.8 |
| 20260902234324 | 69 | 225 | 0.0 | 0.0 | 0.00 | 0.00 | 0.00 | 87 | 1017.8 |
| 20260902233801 | 69 | 225 | 0.0 | 0.0 | 0.00 | 0.00 | 0.00 | 87 | 1017.8 |
| 20260902233324 | 69 | 225 | 0.0 | 0.0 | 0.00 | 0.00 | 0.00 | 87 | 1017.8 |
| 20260902232804 | 69 | 225 | 0.0 | 0.0 | 0.00 | 0.00 | 0.00 | 87 | 1017.8 |
| 20260902232306 | 69 | 225 | 0.0 | 0.0 | 0.00 | 0.00 | 0.00 | 87 | 1018.3 |
| 20260902231803 | 70 | 225 | 0.0 | 0.0 | 0.00 | 0.00 | 0.00 | 87 | 1018.3 |
| 20260902231302 | 70 | 225 | 0.0 | 0.0 | 0.00 | 0.00 | 0.00 | 87 | 1018.3 |
| 20260902230805 | 70 | 225 | 0.0 | 0.0 | 0.00 | 0.00 | 0.00 | 87 | 1018.7 |
| 20260902230257 | 70 | 225 | 0.0 | 0.0 | 0.00 | 0.00 | 0.00 | 86 | 1018.7 |
| 20260902225755 | 70 | 225 | 0.0 | 0.0 | 0.00 | 0.00 | 0.00 | 86 | 1018.7 |
| 20260902225249 | 70 | 225 | 0.0 | 0.0 | 0.00 | 0.00 | 0.00 | 85 | 1019.1 |
| 20260902224748 | 70 | 225 | 0.0 | 0.0 | 0.00 | 0.00 | 0.00 | 85 | 1019.1 |
| 20260902224312 | 70 | 225 | 0.0 | 0.0 | 0.00 | 0.00 | 0.00 | 84 | 1019.1 |
| 20260902223809 | 70 | 225 | 0.0 | 0.0 | 0.00 | 0.00 | 0.00 | 84 | 1018.9 |
| 20260902223248 | 70 | 225 | 0.0 | 0.0 | 0.00 | 0.00 | 0.00 | 84 | 1018.9 |
| 20260902222815 | 70 | 225 | 0.0 | 0.0 | 0.00 | 0.00 | 0.00 | 84 | 1018.9 |
| 20260902222255 | 70 | 225 | 0.0 | 0.0 | 0.00 | 0.00 | 0.00 | 84 | 1019.0 |
| 20260902221813 | 70 | 225 | 0.0 | 0.0 | 0.00 | 0.00 | 0.00 | 84 | 1019.0 |
| 20260902221251 | 70 | 225 | 0.0 | 0.0 | 0.00 | 0.00 | 0.00 | 84 | 1019.0 |
| 20260902220751 | 70 | 225 | 0.0 | 0.0 | 0.00 | 0.00 | 0.00 | 84 | 1019.0 |
| 20260902220250 | 70 | 225 | 0.0 | 0.0 | 0.00 | 0.00 | 0.00 | 84 | 1019.0 |
| 20260902215814 | 70 | 225 | 0.0 | 0.0 | 0.00 | 0.00 | 0.00 | 83 | 1019.0 |
| 20260902215316 | 70 | 225 | 0.0 | 0.0 | 0.00 | 0.00 | 0.00 | 83 | 1018.9 |
| 20260902214757 | 70 | 225 | 0.0 | 0.0 | 0.00 | 0.00 | 0.00 | 83 | 1018.9 |
| 20260902214258 | 70 | 225 | 0.0 | 0.0 | 0.00 | 0.00 | 0.00 | 83 | 1018.9 |
| 20260902213802 | 70 | 225 | 0.0 | 0.0 | 0.00 | 0.00 | 0.00 | 82 | 1018.9 |
| 20260902213303 | 71 | 225 | 0.0 | 0.0 | 0.00 | 0.00 | 0.00 | 82 | 1018.9 |
| 20260902212827 | 71 | 225 | 0.0 | 0.0 | 0.00 | 0.00 | 0.00 | 82 | 1018.9 |
| 20260902212324 | 71 | 225 | 0.0 | 0.0 | 0.00 | 0.00 | 0.00 | 82 | 1018.9 |
| 20260902211805 | 71 | 225 | 0.0 | 0.0 | 0.00 | 0.00 | 0.00 | 82 | 1018.9 |
| 20260902211305 | 71 | 225 | 0.0 | 0.0 | 0.00 | 0.00 | 0.00 | 81 | 1018.9 |
| 20260902210759 | 71 | 225 | 0.0 | 0.0 | 0.00 | 0.00 | 0.00 | 81 | 1019.0 |
| 20260902210250 | 71 | 225 | 0.0 | 0.0 | 0.00 | 0.00 | 0.00 | 81 | 1019.0 |
| 20260902205751 | 71 | 268 | 0.0 | 0.0 | 0.00 | 0.00 | 0.00 | 83 | 1019.0 |
| 20260902205254 | 71 | 268 | 0.0 | 0.0 | 0.00 | 0.00 | 0.00 | 83 | 1018.8 |
| 20260902204754 | 71 | 268 | 0.0 | 0.0 | 0.00 | 0.00 | 0.00 | 83 | 1018.8 |
| 20260902204256 | 71 | 268 | 0.0 | 0.0 | 0.00 | 0.00 | 0.00 | 83 | 1018.8 |
| 20260902203757 | 71 | 268 | 0.0 | 0.0 | 0.00 | 0.00 | 0.00 | 82 | 1018.8 |
| 20260902203301 | 71 | 268 | 0.0 | 0.0 | 0.00 | 0.00 | 0.00 | 82 | 1018.8 |
| 20260902202805 | 71 | 268 | 0.0 | 0.0 | 0.00 | 0.00 | 0.00 | 82 | 1018.8 |
| 20260902202306 | 71 | 268 | 0.0 | 0.0 | 0.00 | 0.00 | 0.00 | 81 | 1018.9 |
| 20260902201751 | 71 | 267 | 0.0 | 0.0 | 0.00 | 0.00 | 0.00 | 82 | 1018.9 |
| 20260902201300 | 71 | 268 | 0.0 | 0.0 | 0.00 | 0.00 | 0.00 | 82 | 1018.9 |
| 20260902200825 | 71 | 268 | 0.0 | 0.0 | 0.00 | 0.00 | 0.00 | 82 | 1019.2 |
| 20260902200253 | 71 | 268 | 0.0 | 0.0 | 0.00 | 0.00 | 0.00 | 82 | 1019.2 |
| 20260902195755 | 71 | 268 | 0.0 | 0.0 | 0.00 | 0.00 | 0.00 | 82 | 1019.2 |
| 20260902195319 | 71 | 267 | 0.0 | 0.0 | 0.00 | 0.05 | 0.00 | 82 | 1019.3 |
| 20260902194801 | 71 | 268 | 0.0 | 0.0 | 0.00 | 0.05 | 0.00 | 82 | 1019.3 |
| 20260902194302 | 71 | 267 | 0.0 | 0.0 | 0.00 | 0.05 | 0.00 | 82 | 1019.3 |
| 20260902193805 | 71 | 268 | 0.0 | 0.0 | 0.00 | 0.05 | 0.00 | 80 | 1019.3 |
| 20260902193304 | 71 | 268 | 0.0 | 0.0 | 0.00 | 0.05 | 0.00 | 80 | 1019.3 |
| 20260902192747 | 71 | 267 | 0.0 | 0.0 | 0.00 | 0.05 | 0.00 | 82 | 1019.3 |
| 20260902192248 | 71 | 267 | 0.0 | 0.0 | 0.00 | 0.05 | 0.00 | 80 | 1019.7 |
| 20260902191806 | 72 | 267 | 0.0 | 0.0 | 0.00 | 0.05 | 0.00 | 80 | 1019.7 |
| 20260902191312 | 72 | 267 | 0.0 | 0.0 | 0.00 | 0.05 | 0.00 | 78 | 1019.7 |
| 20260902190811 | 72 | 268 | 0.0 | 0.0 | 0.00 | 0.05 | 0.00 | 78 | 1019.8 |
| 20260902190250 | 72 | 267 | 0.0 | 0.0 | 0.00 | 0.05 | 0.00 | 79 | 1019.8 |
| 20260902185754 | 72 | 268 | 0.0 | 0.0 | 0.00 | 0.05 | 0.00 | 78 | 1019.8 |
| 20260902185257 | 71 | 268 | 0.0 | 0.0 | 0.00 | 0.15 | 0.00 | 77 | 1019.5 |
| 20260902184821 | 71 | 268 | 0.0 | 0.0 | 0.00 | 0.15 | 0.00 | 78 | 1019.5 |
| 20260902184247 | 71 | 268 | 0.0 | 0.0 | 0.00 | 0.15 | 0.00 | 79 | 1019.5 |
| 20260902183752 | 71 | 268 | 0.0 | 0.0 | 0.00 | 0.15 | 0.00 | 77 | 1019.6 |
| 20260902183254 | 71 | 268 | 0.0 | 0.0 | 0.00 | 0.15 | 0.00 | 78 | 1019.6 |
| 20260902182753 | 71 | 268 | 0.0 | 0.0 | 0.00 | 0.15 | 0.00 | 78 | 1019.6 |
| 20260902182259 | 72 | 268 | 0.0 | 1.0 | 0.00 | 0.15 | 0.00 | 78 | 1019.7 |
| 20260902181801 | 72 | 268 | 0.0 | 1.0 | 0.00 | 0.15 | 0.00 | 78 | 1019.7 |
| 20260902181302 | 72 | 268 | 0.0 | 0.0 | 0.00 | 0.15 | 0.00 | 79 | 1019.7 |
| 20260902180801 | 72 | 268 | 0.0 | 1.0 | 0.00 | 0.15 | 0.00 | 79 | 1019.7 |
| 20260902180254 | 72 | 268 | 0.0 | 1.0 | 0.00 | 0.15 | 0.00 | 78 | 1019.7 |
| 20260902175752 | 72 | 267 | 0.0 | 0.0 | 0.00 | 0.15 | 0.00 | 78 | 1019.7 |
| 20260902175257 | 72 | 360 | 0.0 | 0.0 | 0.00 | 0.25 | 0.00 | 78 | 1019.9 |
| 20260902174801 | 72 | 360 | 0.0 | 2.0 | 0.00 | 0.25 | 0.00 | 77 | 1019.9 |
| 20260902174325 | 71 | 267 | 0.0 | 2.0 | 0.00 | 0.25 | 0.00 | 78 | 1019.9 |
| 20260902173804 | 71 | 267 | 0.0 | 3.0 | 0.00 | 0.25 | 0.00 | 78 | 1020.0 |
| 20260902173302 | 71 | 267 | 1.0 | 3.0 | 0.00 | 0.25 | 0.00 | 80 | 1020.0 |
| 20260902172803 | 71 | 268 | 0.0 | 1.0 | 0.00 | 0.25 | 0.00 | 81 | 1020.0 |
| 20260902172308 | 71 | 268 | 0.0 | 1.0 | 0.00 | 0.25 | 0.00 | 81 | 1019.9 |
| 20260902171805 | 71 | 268 | 0.0 | 1.0 | 0.00 | 0.25 | 0.00 | 81 | 1019.9 |
| 20260902171247 | 71 | 268 | 0.0 | 1.0 | 0.00 | 0.25 | 0.00 | 82 | 1019.9 |
| 20260902170803 | 70 | 268 | 0.0 | 1.0 | 0.00 | 0.25 | 0.00 | 81 | 1019.9 |
| 20260902170250 | 70 | 268 | 0.0 | 4.0 | 0.00 | 0.25 | 0.00 | 82 | 1019.9 |
| 20260902165749 | 70 | 268 | 0.0 | 4.0 | 0.00 | 0.25 | 0.00 | 82 | 1019.9 |
| 20260902165249 | 70 | 360 | 0.0 | 1.0 | 0.00 | 0.37 | 0.00 | 84 | 1019.9 |
| 20260902164751 | 70 | 360 | 0.0 | 3.0 | 0.00 | 0.37 | 0.00 | 84 | 1019.9 |
| 20260902164253 | 70 | 360 | 1.0 | 3.0 | 0.00 | 0.37 | 0.00 | 83 | 1019.9 |
| 20260902163754 | 69 | 360 | 1.0 | 2.0 | 0.00 | 0.37 | 0.00 | 84 | 1020.3 |
| 20260902163323 | 69 | 360 | 0.0 | 2.0 | 0.00 | 0.37 | 0.00 | 84 | 1020.3 |
| 20260902162804 | 69 | 360 | 0.0 | 2.0 | 0.00 | 0.37 | 0.00 | 85 | 1020.3 |
| 20260902162307 | 69 | 360 | 0.0 | 0.0 | 0.00 | 0.37 | 0.00 | 87 | 1020.6 |
| 20260902161822 | 68 | 360 | 0.0 | 0.0 | 0.00 | 0.37 | 0.00 | 87 | 1020.6 |
| 20260902161305 | 68 | 360 | 0.0 | 1.0 | 0.00 | 0.37 | 0.00 | 89 | 1020.6 |
| 20260902160824 | 68 | 360 | 0.0 | 2.0 | 0.00 | 0.37 | 0.00 | 88 | 1020.7 |
| 20260902160258 | 68 | 360 | 0.0 | 1.0 | 0.00 | 0.37 | 0.00 | 89 | 1020.7 |
| 20260902155754 | 67 | 360 | 0.0 | 0.0 | 0.00 | 0.37 | 0.00 | 89 | 1020.7 |
| 20260902155253 | 67 | 360 | 0.0 | 1.0 | 0.00 | 0.40 | 0.00 | 89 | 1020.8 |
| 20260902154756 | 67 | 360 | 0.0 | 1.0 | 0.00 | 0.40 | 0.00 | 90 | 1020.8 |
| 20260902154254 | 67 | 360 | 0.0 | 2.0 | 0.00 | 0.40 | 0.00 | 91 | 1020.8 |
| 20260902153757 | 66 | 360 | 0.0 | 3.0 | 0.00 | 0.40 | 0.00 | 91 | 1020.9 |
| 20260902153258 | 66 | 360 | 1.0 | 3.0 | 0.00 | 0.40 | 0.00 | 92 | 1020.9 |
| 20260902152802 | 66 | 360 | 0.0 | 0.0 | 0.00 | 0.40 | 0.00 | 93 | 1020.9 |
| 20260902152324 | 66 | 360 | 0.0 | 0.0 | 0.00 | 0.40 | 0.00 | 93 | 1021.1 |
| 20260902151806 | 65 | 227 | 0.0 | 0.0 | 0.00 | 0.40 | 0.00 | 93 | 1021.1 |
| 20260902151259 | 66 | 227 | 0.0 | 0.0 | 0.00 | 0.40 | 0.00 | 94 | 1021.1 |
| 20260902150758 | 65 | 227 | 0.0 | 0.0 | 0.00 | 0.40 | 0.00 | 94 | 1021.4 |
| 20260902150254 | 65 | 227 | 0.0 | 0.0 | 0.00 | 0.40 | 0.00 | 94 | 1021.4 |
| 20260902145814 | 65 | 227 | 0.0 | 2.0 | 0.00 | 0.40 | 0.00 | 94 | 1021.4 |
| 20260902145251 | 65 | 227 | 1.0 | 2.0 | 0.00 | 0.41 | 0.00 | 95 | 1021.3 |
| 20260902144748 | 65 | 227 | 0.0 | 2.0 | 0.00 | 0.41 | 0.00 | 95 | 1021.3 |
| 20260902144252 | 65 | 227 | 0.0 | 1.0 | 0.00 | 0.41 | 0.00 | 96 | 1021.3 |
| 20260902143755 | 65 | 227 | 0.0 | 1.0 | 0.00 | 0.41 | 0.00 | 95 | 1021.1 |
| 20260902143256 | 65 | 227 | 0.0 | 0.0 | 0.00 | 0.41 | 0.00 | 96 | 1021.1 |
| 20260902142815 | 65 | 227 | 0.0 | 0.0 | 0.00 | 0.41 | 0.00 | 96 | 1021.1 |
| 20260902142257 | 64 | 227 | 0.0 | 0.0 | 0.00 | 0.41 | 0.00 | 96 | 1021.0 |
| 20260902141756 | 65 | 227 | 0.0 | 0.0 | 0.00 | 0.41 | 0.00 | 96 | 1021.0 |
| 20260902141320 | 65 | 227 | 0.0 | 0.0 | 0.00 | 0.41 | 0.00 | 96 | 1021.0 |
| 20260902140758 | 64 | 227 | 0.0 | 0.0 | 0.00 | 0.41 | 0.00 | 97 | 1021.0 |
| 20260902140313 | 64 | 227 | 0.0 | 0.0 | 0.00 | 0.41 | 0.00 | 96 | 1021.0 |
| 20260902135754 | 64 | 227 | 0.0 | 0.0 | 0.00 | 0.41 | 0.00 | 97 | 1021.0 |
| 20260902135256 | 64 | 227 | 0.0 | 0.0 | 0.00 | 0.41 | 0.00 | 97 | 1020.7 |
| 20260902134756 | 64 | 227 | 0.0 | 0.0 | 0.00 | 0.41 | 0.00 | 97 | 1020.7 |
| 20260902134256 | 64 | 227 | 0.0 | 0.0 | 0.00 | 0.41 | 0.00 | 96 | 1020.7 |
| 20260902133755 | 64 | 227 | 0.0 | 0.0 | 0.00 | 0.41 | 0.00 | 97 | 1020.4 |
| 20260902133250 | 64 | 227 | 0.0 | 0.0 | 0.00 | 0.41 | 0.00 | 97 | 1020.4 |
| 20260902132759 | 63 | 227 | 0.0 | 0.0 | 0.00 | 0.41 | 0.00 | 97 | 1020.4 |
| 20260902132306 | 63 | 227 | 0.0 | 0.0 | 0.00 | 0.41 | 0.00 | 97 | 1020.6 |
| 20260902131801 | 63 | 227 | 0.0 | 2.0 | 0.00 | 0.41 | 0.00 | 97 | 1020.6 |
| 20260902131309 | 63 | 227 | 1.0 | 1.0 | 0.00 | 0.41 | 0.00 | 97 | 1020.6 |
| 20260902130748 | 63 | 227 | 0.0 | 0.0 | 0.00 | 0.41 | 0.00 | 97 | 1020.7 |
| 20260902130302 | 63 | 227 | 0.0 | 0.0 | 0.00 | 0.41 | 0.00 | 97 | 1020.7 |
| 20260902125803 | 63 | 180 | 0.0 | 0.0 | 0.00 | 0.41 | 0.00 | 97 | 1020.7 |
| 20260902125249 | 63 | 180 | 0.0 | 0.0 | 0.00 | 0.46 | 0.00 | 97 | 1020.6 |
| 20260902124750 | 63 | 180 | 0.0 | 0.0 | 0.00 | 0.46 | 0.00 | 97 | 1020.6 |
| 20260902124248 | 63 | 180 | 0.0 | 0.0 | 0.00 | 0.46 | 0.00 | 97 | 1020.6 |
| 20260902123749 | 63 | 317 | 0.0 | 0.0 | 0.00 | 0.46 | 0.00 | 97 | 1020.6 |
| 20260902123301 | 63 | 360 | 0.0 | 0.0 | 0.00 | 0.46 | 0.00 | 97 | 1020.6 |
| 20260902122820 | 63 | 360 | 0.0 | 0.0 | 0.00 | 0.46 | 0.00 | 97 | 1020.6 |
| 20260902122321 | 63 | 360 | 0.0 | 0.0 | 0.00 | 0.46 | 0.00 | 97 | 1020.6 |
| 20260902121819 | 63 | 360 | 0.0 | 0.0 | 0.00 | 0.46 | 0.00 | 97 | 1020.6 |
| 20260902121257 | 63 | 360 | 0.0 | 0.0 | 0.00 | 0.46 | 0.00 | 97 | 1020.6 |
| 20260902120804 | 62 | 360 | 0.0 | 0.0 | 0.00 | 0.46 | 0.00 | 97 | 1020.6 |
| 20260902120258 | 62 | 360 | 0.0 | 0.0 | 0.00 | 0.46 | 0.00 | 97 | 1020.6 |
| 20260902115801 | 62 | 360 | 0.0 | 0.0 | 0.00 | 0.46 | 0.00 | 97 | 1020.6 |
| 20260902115308 | 62 | 360 | 0.0 | 0.0 | 0.00 | 0.62 | 0.00 | 97 | 1020.7 |
| 20260902114806 | 62 | 360 | 0.0 | 0.0 | 0.00 | 0.62 | 0.00 | 97 | 1020.7 |
| 20260902114245 | 62 | 360 | 0.0 | 0.0 | 0.00 | 0.62 | 0.00 | 97 | 1020.7 |
| 20260902113803 | 62 | 360 | 0.0 | 0.0 | 0.00 | 0.62 | 0.00 | 97 | 1020.9 |
| 20260902113303 | 62 | 360 | 0.0 | 0.0 | 0.00 | 0.62 | 0.00 | 97 | 1020.9 |
| 20260902112746 | 62 | 360 | 0.0 | 0.0 | 0.00 | 0.62 | 0.00 | 97 | 1020.9 |
| 20260902112252 | 62 | 360 | 0.0 | 0.0 | 0.00 | 0.62 | 0.00 | 97 | 1020.9 |
| 20260902111754 | 62 | 360 | 0.0 | 0.0 | 0.00 | 0.62 | 0.00 | 97 | 1020.9 |
| 20260902111249 | 62 | 360 | 0.0 | 0.0 | 0.00 | 0.62 | 0.00 | 97 | 1020.9 |
| 20260902110812 | 62 | 360 | 0.0 | 0.0 | 0.00 | 0.62 | 0.00 | 97 | 1020.7 |
| 20260902110304 | 62 | 360 | 0.0 | 0.0 | 0.00 | 0.62 | 0.00 | 97 | 1020.7 |
| 20260902105824 | 62 | 360 | 0.0 | 0.0 | 0.00 | 0.62 | 0.00 | 97 | 1020.7 |
| 20260902105249 | 62 | 360 | 0.0 | 0.0 | 0.00 | 0.71 | 0.00 | 97 | 1020.7 |
| 20260902104808 | 62 | 360 | 0.0 | 0.0 | 0.00 | 0.71 | 0.00 | 97 | 1020.7 |
| 20260902104249 | 62 | 360 | 0.0 | 0.0 | 0.00 | 0.71 | 0.00 | 97 | 1020.7 |
| 20260902103751 | 62 | 360 | 0.0 | 0.0 | 0.00 | 0.71 | 0.00 | 97 | 1020.6 |
| 20260902103422 | 62 | 360 | 0.0 | 0.0 | 0.00 | 0.71 | 0.00 | 97 | 1020.6 |
| 20260902102805 | 62 | 360 | 0.0 | 0.0 | 0.00 | 0.71 | 0.00 | 97 | 1020.6 |
| 20260902102250 | 62 | 360 | 0.0 | 0.0 | 0.00 | 0.71 | 0.00 | 97 | 1020.3 |
| 20260902101754 | 62 | 360 | 0.0 | 0.0 | 0.00 | 0.71 | 0.00 | 97 | 1020.3 |
| 20260902101251 | 62 | 360 | 0.0 | 0.0 | 0.00 | 0.71 | 0.00 | 97 | 1020.3 |
| 20260902100754 | 62 | 360 | 0.0 | 0.0 | 0.00 | 0.71 | 0.00 | 97 | 1020.3 |
| 20260902100251 | 62 | 360 | 0.0 | 0.0 | 0.00 | 0.71 | 0.00 | 97 | 1020.3 |
| 20260902095756 | 62 | 360 | 0.0 | 0.0 | 0.00 | 0.71 | 0.00 | 97 | 1020.3 |
| 20260902095322 | 62 | 360 | 0.0 | 0.0 | 0.00 | 0.74 | 0.00 | 97 | 1020.0 |
| 20260902094819 | 62 | 360 | 0.0 | 0.0 | 0.00 | 0.74 | 0.00 | 97 | 1020.0 |
| 20260902094318 | 62 | 360 | 0.0 | 0.0 | 0.00 | 0.74 | 0.00 | 97 | 1020.0 |
| 20260902093759 | 62 | 360 | 0.0 | 0.0 | 0.00 | 0.74 | 0.00 | 97 | 1019.9 |
| 20260902093304 | 62 | 360 | 0.0 | 0.0 | 0.00 | 0.74 | 0.00 | 97 | 1019.9 |
| 20260902092806 | 62 | 360 | 0.0 | 0.0 | 0.00 | 0.74 | 0.00 | 97 | 1019.9 |
| 20260902092248 | 62 | 360 | 0.0 | 0.0 | 0.00 | 0.74 | 0.00 | 97 | 1019.8 |
| 20260902091748 | 62 | 360 | 0.0 | 0.0 | 0.00 | 0.74 | 0.00 | 97 | 1019.8 |
| 20260902091305 | 62 | 360 | 0.0 | 0.0 | 0.00 | 0.74 | 0.00 | 97 | 1019.8 |
| 20260902090806 | 62 | 360 | 0.0 | 0.0 | 0.00 | 0.74 | 0.00 | 97 | 1019.8 |
| 20260902090248 | 62 | 360 | 0.0 | 0.0 | 0.00 | 0.74 | 0.00 | 97 | 1019.8 |
| 20260902085805 | 62 | 360 | 0.0 | 0.0 | 0.00 | 0.74 | 0.00 | 97 | 1019.8 |
| 20260902085306 | 62 | 360 | 0.0 | 0.0 | 0.00 | 0.74 | 0.00 | 97 | 1019.8 |
| 20260902084748 | 62 | 360 | 0.0 | 0.0 | 0.00 | 0.74 | 0.00 | 97 | 1019.8 |
| 20260902084305 | 62 | 360 | 0.0 | 0.0 | 0.00 | 0.74 | 0.00 | 97 | 1019.8 |
| 20260902083747 | 62 | 360 | 0.0 | 0.0 | 0.00 | 0.74 | 0.00 | 97 | 1019.5 |
| 20260902083252 | 62 | 360 | 0.0 | 0.0 | 0.00 | 0.74 | 0.00 | 97 | 1019.5 |
| 20260902082752 | 62 | 360 | 0.0 | 0.0 | 0.00 | 0.74 | 0.00 | 97 | 1019.5 |